Regional Weather Roundup
Issued by NWS

Home | Current Version | Previous Version | Graphics & Text | Print | Product List | Glossary On
Versions: 1 2 3 4 5 6 7 8 9 10 11 12 13 14 15 16 17 18 19 20 21 22 23 24 25 26 27
000
ASUS45 KBOI 312110
RWRID

IDAHO REGIONAL WEATHER ROUNDUP
NATIONAL WEATHER SERVICE BOISE ID
300 PM MDT TUE MAY 31 2016

NOTE: "FAIR" INDICATES FEW OR NO CLOUDS BELOW 12000 FEET
WITH NO SIGNIFICANT WEATHER AND/OR OBSTRUCTIONS TO VISIBILITY

IDZ012-014-312200-
SOUTHWEST IDAHO


CITY           SKY/WX    TMP DP  RH WIND       PRES   REMARKS
BOISE          SUNNY     76  21  12 VRB3      30.06F
CALDWELL       SUNNY     78  30  17 NW6       30.06F
MOUNTAIN HOME  SUNNY     78  32  18 VRB6      30.06F
$$

IDZ016-017-312200-
SOUTHCENTRAL IDAHO


CITY           SKY/WX    TMP DP  RH WIND       PRES   REMARKS
BURLEY         SUNNY     72  33  24 S3        30.09F
JEROME         SUNNY     72  30  21 VRB5      30.10F
TWIN FALLS     SUNNY     72  38  29 NW6       30.10F
$$

IDZ019>023-312200-
SOUTHEAST IDAHO


CITY           SKY/WX    TMP DP  RH WIND       PRES   REMARKS
IDAHO FALLS    SUNNY     67  29  24 VRB5      30.13F
POCATELLO      MOSUNNY   71  28  20 NW8       30.12F
REXBURG        SUNNY     67  27  22 NE9       30.12F
$$

IDZ006-010-011-018-031-032-312200-
CENTRAL IDAHO MOUNTAINS


CITY           SKY/WX    TMP DP  RH WIND       PRES   REMARKS
MCCALL         SUNNY     67  23  19 W13       30.12F
HAILEY         MOSUNNY   66  37  34 SE8       30.14F
STANLEY          N/A     66  23  19 W9        30.16F
SALMON         SUNNY     68  27  21 CALM      30.07F
CHALLIS        SUNNY     70  24  17 CALM      30.08F
$$

IDZ002-004-006-007-026-312200-
NORTHERN IDAHO


CITY           SKY/WX    TMP DP  RH WIND       PRES   REMARKS
LEWISTON       SUNNY     78  33  19 VRB3      30.08F
LOWELL           N/A     79  40  24 VRB7      30.05F
COEUR D`ALENE  SUNNY     75  39  27 NW6       30.09F
MULLAN PASS    SUNNY     57  25  29 VRB5      30.20F
$$




USA.gov is the U.S. government's official web portal to all federal, state and local government web resources and services.